User: anonymous   Login
Location: Wingville
(42.9917°N, 90.4915°W)
Time: 08:10:58
(UTC+00:00)
Language:

Cosmos 1805 Rocket - Orbit

View from above orbital plane
View from above orbital plane
View from above satellite
View from above satellite

Ground track
Ground track

The orbit data is extracted from the following two-line orbital elements,

1 17192U 86097B   22330.89776480  .00000258  00000-0  28147-4 0  9990
2 17192  82.5075 189.6908 0017689  29.6440 341.0092 14.83878954922454
Epoch (UTC): 26 November 2022 21:32:46
Eccentricity: 0.0017689
inclination: 82.5075°
perigee height: 605 km
apogee height: 629 km
right ascension of ascending node: 189.6908°
argument of perigee: 29.6440°
revolutions per day: 14.83878954
mean anomaly at epoch: 341.0092°
orbit number at epoch: 92245

The dashed part of the orbit path shows where the satellite is in the earth's shadow,  

DLR